Simultaneous Nadir Overpasses (SNOs) Predictions

Prediction of SNOs near US between AQUA and NPP Satellite Orbit:

Table of predicted SNOs near US for the next 10.0 days since TLE Epoch: 4/2/2022
Index Date (AQUA) Time (AQUA) AQUA Lat,Lon Date (NPP) Time (NPP) NPP Lat,Lon Distance(km) Time Diff (sec)
1 04/04/2022 08:31:23 25.45, -99.58 04/04/2022 08:24:33 25.63,-100.63 106.95 410
2 04/04/2022 10:07:45 34.51,-121.92 04/04/2022 10:03:26 34.80,-123.46 144.40 259
3 04/07/2022 07:16:20 49.93, -74.88 04/07/2022 07:20:18 50.56, -78.07 237.54 238
4 04/09/2022 18:14:17 49.96, -79.09 04/09/2022 18:10:35 49.53, -81.65 190.13 222
5 04/09/2022 19:53:10 49.98,-103.82 04/09/2022 19:52:03 49.42,-106.98 235.61 67
